Regional Weather Roundup
Issued by NWS

Home | Current Version | Previous Version | Text Only | Print | Product List | Glossary On
Versions: 1 2 3 4 5 6 7 8 9 10 11 12 13 14 15 16 17 18 19 20 21 22 23 24 25 26 27 28 29 30 31 32 33 34 35 36 37 38 39 40 41 42 43 44 45 46 47 48 49 50
000
ASUS43 KTOP 221259
RWRKS

WEATHER ROUNDUP FOR KANSAS
NATIONAL WEATHER SERVICE GOODLAND KS
800 AM CDT TUE AUG 22 2017

NOTE:  "FAIR" INDICATES FEW OR NO CLOUDS BELOW 12,000 FEET WITH NO
SIGNIFICANT WEATHER AND/OR OBSTRUCTIONS TO VISIBILITY.

KSZ001>006-013>018-027>032-041>047-221400-
NORTHWEST KANSAS

CITY           SKY/WX    TMP DP  RH WIND       PRES   REMARKS
GOODLAND       CLOUDY    62  62 100 NE9       30.27R
HAYS           SUNNY     67  63  87 N16G23    30.16R
HILL CITY      CLOUDY    65  63  93 N13       30.21R
RUSSELL        PTSUNNY   67  62  84 N15       30.14R
$$

KSZ061>065-074>080-084>089-221400-
SOUTHWEST KANSAS

CITY           SKY/WX    TMP DP  RH WIND       PRES   REMARKS
DODGE CITY     CLOUDY    67  64  90 N16G28    30.14R FOG
ELKHART          N/A     66  66 100 N9          N/A
GARDEN CITY    CLOUDY    66  62  87 NE22G30   30.17R
GREAT BEND     CLOUDY    68  66  93 N17G24    30.12R
LIBERAL        CLOUDY    68  65  90 NE20      30.14
$$

KSZ066>073-081>083-090>101-221400-
SOUTHEAST KANSAS

CITY           SKY/WX    TMP DP  RH WIND       PRES   REMARKS
CHANUTE        MOSUNNY   71  68  90 E8        30.06S
COFFEYVILLE    CLOUDY    77  73  87 NE13G21   30.04R
HUTCHINSON     CLOUDY    72  70  93 N13G20    30.03R
MEDICINE LODGE   N/A     73  67  81 NW3       30.03R
NEWTON         SUNNY     74  70  87 E5        30.05
PARSONS        PTSUNNY   76  72  87 VRB5      30.07S
WICHITA INTL   MOSUNNY   74  72  93 CALM      30.02R
WICHITA JABRA  CLOUDY    73  72  96 S3        30.03R
WICHITA MCCONL MOSUNNY   74  69  85 CALM      30.03R
WINFIELD       MOSUNNY   76  71  85 CALM      30.04R
$$

KSZ007>012-019>026-033>040-048>060-102>105-221400-
NORTHEAST KANSAS

CITY           SKY/WX    TMP DP  RH WIND       PRES   REMARKS
CONCORDIA      SUNNY     66  65  96 NE9       30.15R
EMPORIA        CLOUDY    70  68  93 SE8       30.04R
LAWRENCE       CLOUDY    68  67  96 N5        30.07R
MANHATTAN      CLOUDY    69  66  90 NE8       30.09R
OLATHE IND     CLOUDY    66  66 100 N6        30.08R
OLATHE EXE     CLOUDY    66  66 100 N6        30.07R
SALINA         PTSUNNY   71  65  81 NE15G22   30.10R
TOPEKA BILLARD CLOUDY    67  67 100 N8        30.08R
TOPEKA FORBES  CLOUDY    69  67  93 NE7       30.08R
$$




USA.gov is the U.S. government's official web portal to all federal, state and local government web resources and services.